This is the latest recevied weather packets stored in our database for station/object N6HGA-1. If no packets are shown the sender has not sent any weather packets the latest 10 day(s).
| Time | Temp. | Humidity | Pressure | Rain* | Wind** | Luminosity | Snow |
|---|---|---|---|---|---|---|---|
| 1788623039 | 19.44° C | 52% | - | 0 mm | - | - | - |
| 1788622739 | 18.89° C | 55% | - | 0 mm | - | - | - |
| 1788622440 | 18.89° C | 56% | - | 0 mm | - | - | - |
| 1788622137 | 18.89° C | 57% | - | 0 mm | - | - | - |
| 1788621837 | 18.33° C | 57% | - | 0 mm | - | - | - |
| 1788621537 | 18.33° C | 62% | - | 0 mm | - | - | - |
| 1788621233 | 17.78° C | 65% | - | 0 mm | - | - | - |
| 1788620930 | 17.22° C | 66% | - | 0 mm | - | - | - |
| 1788620629 | 17.22° C | 69% | - | 0 mm | - | - | - |
| 1788620326 | 16.67° C | 69% | - | 0 mm | - | - | - |
| 1788620026 | 16.67° C | 69% | - | 0 mm | - | - | - |
| 1788619720 | 16.67° C | 70% | - | 0 mm | - | - | - |
| 1788619419 | 16.67° C | 71% | - | 0 mm | - | - | - |
| 1788619157 | 16.67° C | 71% | - | 0 mm | - | - | - |
| 1788619119 | 16.67° C | 71% | - | 0 mm | - | - | - |
| 1788618819 | 16.11° C | 72% | - | 0 mm | - | - | - |
| 1788618513 | 15.56° C | 74% | - | 0 mm | - | - | - |
| 1788618209 | 15.56° C | 75% | - | 0 mm | - | - | - |
| 1788617908 | 15° C | 76% | - | 0 mm | - | - | - |
| 1788617608 | 14.44° C | 77% | - | 0 mm | - | - | - |
| 1788617307 | 13.89° C | 78% | - | 0 mm | - | - | - |
| 1788617006 | 13.89° C | 78% | - | 0 mm | - | - | - |
| 1788616698 | 13.89° C | 77% | - | 0 mm | - | - | - |
| 1788616397 | 13.89° C | 76% | - | 0 mm | - | - | - |
| 1788616097 | 13.89° C | 76% | - | 0 mm | - | - | - |
* Rain since midnight (hover to see other rain measurements)
** Current wind speed in m/s (hover to see current wind gust speed)